Terminal Aerodrome Forecast
Issued by NWS Shreveport, LA

Home | Current Version | Previous Version | Text Only | Print | Product List | Glossary On
Versions: 1 2 3 4 5 6 7 8 9 10 11 12 13 14 15 16 17 18 19
000
FTUS44 KSHV 222340
TAFTXK
TAF
KTXK 222340Z 2300/2324 12005KT P6SM BKN060
     FM231400 13006KT P6SM BKN015
     FM231700 15008KT P6SM BKN035
     FM232100 14010KT P6SM VCSH OVC035=

USA.gov is the U.S. government's official web portal to all federal, state and local government web resources and services.